Reflectivity
-20 -20 -20 -20 -20 -20 -20 -20 -20 -20 -20 -20 -20 -20 -20 -20 -20 -12 -20 9 -11 2 -19 -20 -20 5 -20 -20 -20 -20 -20 -20 -20 -20 -20 -20 -14 -7 -20 -20 -20 2 -20 -20 -20 -3 -2 -7 -20
-20 -20 -20 -20 -20 -20 -20 -20 -20 -20 -20 -20 -20 -20 -20 -20 -20 -20 -20 6 -5 -20 -20 -20 -20 -20 -9 -20 1 -20 -20 -20 -20 -2 -20 -18 -4 2 -13 -20 -14 -6 -20 -20 -20 -20 -20 -20 -20
-20 -20 -20 -20 -20 -20 -20 -20 -20 -20 -20 -20 -20 -20 -20 -20 -20 16 -20 -20 0 15 -19 -20 -20 -17 3 -19 -20 -20 -15 -20 -20 -20 -20 -20 -20 -20 -20 -20 -20 19 -3 -20 -20 -20 -20 -20 -20
-20 -20 -20 -20 -20 -20 -20 -20 -20 -20 -20 -20 -20 -20 -20 -20 -20 -20 -20 -20 24 -20 -20 -20 -20 -20 -20 -20 -20 -20 -20 -20 -20 -20 -20 2 -5 -20 -20 -20 -20 -20 -20 -20 -20 -20 -20 -20 -20
-20 -20 -20 -20 -20 -20 -20 -20 -20 -20 -20 -20 -20 -20 -20 -20 -14 -20 -20 -20 -20 -20 -20 4 -15 -4 -7 -15 -20 -20 -20 -20 -20 -20 -20 -20 -20 -20 -20 -20 -20 8 -20 -20 -20 -20 -20 -20 -20
-20 -20 -20 -20 -20 -20 -20 -20 -20 -20 -20 -20 -20 -20 -20 -20 -20 -20 -20 -20 5 -17 -1 -20 -20 -20 -20 -20 -20 -20 -20 -20 -20 -20 -20 -14 -10 -20 -20 -20 -20 -20 -20 -20 -20 -20 -20 -20 -20
-20 -20 -20 -20 -20 -20 -20 -20 -20 -20 -20 -20 -20 -20 -20 -20 -20 -20 -20 -20 -20 -20 -20 -20 -20 -20 -20 -20 -20 -20 -18 -20 -20 -20 -20 -18 -20 -20 -20 -20 -20 -20 -20 -20 -20 -20 -20 -20 -20
-20 -20 -20 -20 -20 -20 -20 -20 -20 -20 -20 -20 -20 -20 -20 -20 -20 -20 -20 -20 -20 -20 -20 -20 -5 -17 -20 -20 -20 -20 -20 -20 -20 -20 -20 -20 -20 -20 -20 -20 -20 -20 -20 -20 -20 -20 -20 -20 -20
-20 -20 -20 -20 -20 -20 -20 -20 -20 -20 -20 -20 -20 -20 -20 -20 -20 -20 -20 -8 -20 -20 -20 -20 -20 -20 -20 -5 -20 -13 -20 -20 -3 0 11 -10 -5 35 19 -1 8 -20 -20 -20 -20 -20 -20 -20 -20
-20 -20 -20 -20 -20 -20 -20 -20 -20 -20 -20 -20 -20 -20 -20 -20 -20 -20 -20 -20 -20 -20 -20 -20 -10 -20 -20 -8 -16 -5 8 22 28 21 16 15 27 34 36 34 21 -6 -20 -20 -8 -20 -20 -20 -20
-20 -20 -20 -20 -20 -20 -20 -20 -20 -20 -20 -20 -20 -20 -20 -20 -20 -20 -20 -20 -20 -20 -20 -20 -20 -20 -20 -20 -20 -20 -20 -20 -16 -15 2 1 14 19 -0 11 1 -20 -20 -16 -5 -20 -20 -20 -20
-20 -20 -20 -20 -20 -20 -20 -20 -20 -20 -20 -20 -20 -20 -20 -20 -20 -20 -20 -20 -20 -20 -20 -20 -20 -20 -20 -20 -20 -20 -20 -20 -20 -20 -20 -16 -10 -8 -19 -20 -20 -20 -20 -20 -20 -20 -20 -19 -20
-20 -20 -20 -20 -20 -20 -20 -20 -20 -20 -20 -20 -20 -20 -20 -20 -20 -20 -20 -20 -20 -20 -20 -20 -20 -20 -20 -20 -20 -20 -20 -20 -20 -20 -20 -19 -20 -20 -6 -20 -20 -20 -20 -20 -20 -20 -20 -20 -20
-20 -20 -20 -20 -20 -20 -20 -20 -20 -20 -20 -20 -20 -20 -20 -20 -20 -20 -20 -20 -20 -20 -20 -20 -20 -20 -20 -20 -20 -20 -20 -20 -20 -20 -20 -20 -20 -20 -20 -20 -20 -20 -20 -20 -20 -20 -20 -20 -20
-20 -20 -20 -20 -20 -20 -20 -20 -20 -20 -20 -20 -20 -20 -20 -20 -20 -20 -20 -20 -20 -20 -20 -20 -20 -20 -20 -20 -20 -20 -20 -20 -20 -20 -20 -20 -20 -20 -20 -20 -20 -20 -20 -20 -20 -20 -20 -20 -20
-20 -20 -20 -20 -20 -20 -20 -20 -20 -20 -20 -20 -20 -20 -20 -20 -20 -20 -20 -20 -20 -20 -20 -20 -20 -20 -20 -20 -20 -20 -20 -20 -20 -20 -20 -20 -20 -20 -20 -20 -20 -20 -20 -20 -20 -20 -20 -20 -20
-20 -20 -20 -20 -20 -20 -20 -20 -20 -20 -20 -20 -20 -20 -20 -20 -20 -20 -20 -20 -20 -20 -20 -20 -20 -20 -20 -20 -20 -20 -20 -20 -20 -20 -20 -20 -20 -20 -20 -20 -20 -20 -20 -20 -20 -20 -20 -20 -20
-20 -20 -20 -20 -20 -20 -20 -20 -20 -20 -20 -20 -20 -20 -20 -20 -20 -20 -20 -20 -20 -20 -20 -20 -20 -20 -20 -20 -20 -20 -20 -20 -20 -20 -20 -20 -20 -20 -20 -20 -20 -20 -20 -20 -20 -20 -20 -20 -20
-20 -20 -20 -20 -20 -20 -20 -20 -20 -20 -20 -20 -20 -20 -20 -20 -20 -20 -20 -20 -20 -20 -20 -20 -20 -20 -20 -20 -20 -20 -20 -20 -20 -20 -20 -20 -20 -20 -20 -20 -20 -20 -20 -20 -20 -20 -20 -20 -20
-20 -20 -20 -20 -20 -20 -20 -20 -20 -20 -20 -20 -20 -20 -20 -20 -20 -20 -20 -20 -20 -20 -20 -20 -20 -20 -20 -20 -20 -20 -20 -20 -20 -20 -20 -20 -20 -20 -20 -20 -20 -20 -20 -20 -20 -20 -20 -20 -20
-20 -20 -20 -20 -20 -20 -20 -20 -20 -20 -20 -20 -20 -20 -20 -20 -20 -20 -20 -20 -20 -20 -20 -20 -20 -20 -20 -20 -20 -20 -20 -20 -20 -20 -20 -20 -20 -20 -20 -20 -20 -20 -20 -20 -20 -20 -20 -20 -20
-20 -20 -20 -20 -20 -20 -20 -20 -20 -20 -20 -20 -20 -20 -20 -20 -20 -20 -20 -20 -20 -20 -20 -20 -20 -20 -20 -20 -20 -20 -20 -20 -20 -20 -20 -20 -20 -20 -20 -20 -20 -20 -20 -20 -20 -20 8 -9 -20
-20 -20 -20 -20 -20 -20 -20 -20 -20 -20 -20 -20 -20 -20 -20 -20 -20 -20 -20 -20 -20 -20 -20 -20 -20 -20 -20 -20 -20 -20 -20 -20 -20 -20 -20 -20 -20 -20 -20 -20 -20 -20 -20 -20 -20 -20 -20 -20 4
-20 -20 -20 -20 -20 -20 -20 -20 -20 -20 -20 -12 -9 -20 -20 -20 -20 -20 -20 -20 -20 -20 -20 -20 -20 -20 -20 -20 -20 -20 -20 -20 -20 -20 -20 -20 -20 -20 -20 -20 -20 -20 -20 -20 -20 -20 -20 -20 -20
-20 -20 -20 -20 -20 -20 -20 -20 -20 -20 -20 -20 -9 -19 -20 -20 -20 -20 -20 -20 -20 -20 -20 -20 -20 -20 -20 -20 -20 -20 -20 -20 -20 -20 -20 -20 -20 -20 -20 -20 -20 -20 -20 -20 -20 -20 -20 -20 -20
-20 -20 -20 -20 -20 -20 -20 -20 -20 -20 -20 -20 -20 -7 -20 -20 -20 -20 -20 -20 -20 -20 -20 -20 -20 -20 -20 -20 -20 -20 -20 -20 -20 -20 -20 -20 -20 -20 -20 -20 -20 -20 -20 -20 -20 -20 -14 9 14
-20 -20 -20 -20 -20 -20 -20 -20 -20 -20 -18 -2 -1 -20 -20 -20 -20 -20 -20 -20 -20 -20 -20 -20 -20 -20 -20 -20 -20 -20 -20 -20 -20 -20 -20 -20 -20 -20 -20 -20 -20 -20 -20 -20 -20 -20 -19 -6 -20
-20 -20 -20 -20 -20 -20 -20 -20 -20 -20 -20 -2 -18 -7 -18 -20 -20 -20 -20 -20 -20 -20 -20 -20 -20 -20 -20 -20 -20 -20 -20 -20 -20 -20 -20 -20 -20 -20 -20 -20 -20 -20 -20 -20 -19 -14 -20 -13 -16
-20 -20 -20 -20 -20 -20 -20 -20 -20 -20 -20 -11 -3 -6 -16 -20 -20 -20 -20 -20 -20 -20 -20 -20 -20 -20 -20 -20 -20 -20 -20 -20 -20 -20 -20 -20 -20 -20 -20 -20 -20 -20 -20 -8 3 5 1 -18 -15
-20 -20 -20 -20 -20 -20 -20 -20 -20 -20 -20 -20 -20 -20 -20 -20 -20 -20 -20 -20 -20 -20 -20 -20 -20 -20 -20 -20 -20 -20 -20 -20 -20 -20 -20 -20 -20 -20 -20 -20 -20 -20 -20 -17 14 -1 -8 -13 -14
Wind_Speed
16 9 4 2 1 2 6 4 3 4 3 5 5 6 6 9 5 4 1 5 8 14 12 11 10 10 10 10 11 10 10 11 10 11 10 10 9 9 8 7 7 8 9 9 9 10 11 10 10
10 6 2 4 1 3 2 8 10 9 9 7 1 7 4 7 9 6 4 7 8 11 12 11 11 11 10 9 10 9 9 10 9 10 10 9 8 8 7 6 5 7 8 9 9 9 10 9 9
10 2 2 2 4 3 1 6 8 5 6 7 2 7 6 5 8 4 5 3 5 8 11 12 10 10 10 9 8 7 8 8 8 7 7 7 7 7 5 3 4 5 7 8 8 7 8 8 7
5 2 3 1 7 4 5 8 8 6 5 1 6 8 7 8 3 4 6 1 10 10 11 11 9 8 8 7 5 5 5 6 6 7 6 5 5 6 5 4 5 6 6 7 7 6 5 5 5
3 4 3 5 8 5 8 7 3 8 3 3 2 6 6 4 7 6 8 8 9 10 11 11 14 13 11 9 6 5 5 4 4 4 5 5 5 5 4 4 4 5 5 6 7 6 5 4 4
3 2 3 3 7 7 8 9 5 5 5 6 2 6 5 5 7 5 7 10 8 9 7 9 14 15 15 14 12 8 4 4 4 3 3 4 4 5 4 3 3 4 4 5 5 5 4 4 4
3 2 6 4 6 2 5 6 5 7 3 4 4 3 7 10 5 4 8 9 8 7 7 6 6 11 14 12 11 9 8 4 5 3 1 1 1 3 4 4 3 3 3 4 6 6 6 5 5
3 2 6 5 2 1 4 6 2 6 5 1 3 4 6 9 9 6 8 8 7 6 6 6 5 6 7 5 8 8 6 10 11 8 7 6 1 2 4 6 4 3 2 3 4 6 6 6 6
3 3 5 3 4 4 6 4 4 2 4 2 5 8 10 12 10 7 6 5 6 6 5 5 6 5 5 3 2 5 5 6 5 6 3 3 5 6 3 3 4 3 2 1 3 4 6 8 7
2 3 6 5 5 4 7 1 7 1 6 4 5 5 9 9 9 8 7 5 5 5 5 5 6 5 5 4 3 4 5 5 3 4 4 3 3 4 5 3 2 1 2 4 4 4 6 5 4
2 3 6 5 7 7 6 6 4 3 6 0 9 12 11 6 7 7 8 7 6 5 5 6 4 4 5 4 0 1 3 4 4 7 4 4 4 3 2 3 2 3 3 3 4 2 2 4 4
3 5 3 5 5 5 6 7 6 7 5 4 6 11 10 8 7 8 8 7 6 6 5 6 5 6 4 3 4 4 4 4 4 4 6 5 4 5 4 3 1 1 2 3 2 2 2 2 3
6 6 5 5 2 6 7 7 8 9 6 8 2 11 10 9 6 6 8 8 8 6 5 6 6 6 6 7 5 5 5 4 4 5 6 5 4 4 4 4 4 4 2 1 2 3 3 1 1
5 6 8 6 5 4 4 8 2 5 7 5 6 8 8 9 9 6 7 7 8 7 6 7 7 6 7 6 7 5 5 4 4 4 5 6 5 4 3 4 4 3 4 4 4 2 3 3 1
5 6 8 10 6 4 4 8 10 8 4 7 8 8 9 9 9 8 7 8 9 6 6 7 6 6 6 5 5 4 4 4 4 4 5 6 5 5 5 4 5 4 4 4 3 4 2 2 2
4 5 3 4 6 4 2 8 7 6 5 8 9 8 9 9 8 8 10 8 8 8 7 6 6 6 6 5 4 4 4 4 3 3 4 6 6 5 4 2 3 3 4 3 3 4 4 4 3
4 3 7 4 6 2 6 7 5 4 6 8 8 8 9 8 8 8 8 10 9 8 7 7 7 6 5 5 4 4 5 3 3 4 4 6 5 5 4 4 3 4 3 3 2 2 3 4 5
6 6 7 5 5 5 6 12 10 9 8 9 9 9 9 9 9 11 9 8 9 10 8 6 5 5 4 3 3 3 4 4 4 4 4 6 5 6 5 4 5 4 3 4 0 2 0 3 4
4 7 9 9 4 0 7 10 11 8 8 9 9 9 9 9 8 9 10 8 8 8 9 7 7 5 4 4 3 3 3 3 3 4 6 6 6 6 6 4 5 5 4 4 5 1 2 2 3
7 8 9 9 3 2 7 12 11 10 10 12 10 9 11 10 10 10 9 8 7 8 7 8 7 7 5 3 2 2 1 1 1 3 4 5 6 6 6 6 5 6 4 6 5 5 2 3 2
7 7 8 8 8 5 9 11 12 13 15 10 11 9 9 14 14 12 11 9 9 9 8 7 7 7 5 4 3 3 3 3 4 4 3 4 5 5 5 6 5 6 5 4 4 4 5 3 3
4 5 6 7 4 3 4 7 6 11 11 10 10 9 8 11 14 12 10 7 8 8 8 8 7 7 6 6 4 4 3 2 2 2 2 4 4 4 5 5 5 5 4 5 4 5 4 4 4
1 3 4 4 4 4 3 2 7 4 4 6 9 9 8 11 15 13 10 8 8 8 8 8 7 7 6 6 5 4 4 3 2 3 5 5 5 4 4 4 5 5 3 5 5 6 6 5 5
4 5 6 2 1 2 10 8 5 2 5 4 8 2 7 9 11 13 11 10 9 7 7 7 8 6 5 5 6 6 5 4 4 4 4 4 4 4 4 5 5 5 5 6 6 7 8 8 5
3 4 4 4 2 7 4 1 9 6 7 6 6 8 8 6 10 14 14 11 9 8 7 7 8 7 6 5 4 4 3 3 4 5 4 5 4 4 5 6 5 4 5 5 4 7 6 7 6
7 4 4 5 3 4 1 5 5 6 6 5 4 5 7 6 7 14 14 13 9 8 7 7 8 7 6 5 3 3 4 2 2 2 2 3 3 4 6 5 6 6 6 5 5 4 6 8 7
2 4 1 3 4 2 6 6 4 5 6 7 5 3 4 5 4 14 12 12 9 7 7 8 7 7 6 5 4 5 5 4 3 2 2 3 6 6 5 6 6 6 6 6 5 3 5 6 7
3 3 2 2 3 6 6 6 3 6 6 5 4 5 2 4 9 10 10 11 7 7 6 7 7 7 5 6 5 4 5 5 4 5 6 6 6 6 6 6 6 6 6 8 6 4 6 7 5
4 3 4 0 2 4 4 2 4 6 5 4 6 6 5 7 7 8 8 8 8 7 6 7 7 6 6 5 4 4 4 4 4 5 5 6 7 6 6 6 5 6 8 7 7 7 8 8 9
2 5 9 5 5 4 3 6 4 5 4 5 4 6 6 6 7 7 7 7 7 7 6 7 6 6 5 4 3 4 4 5 5 4 6 7 6 6 6 9 10 9 7 7 7 8 8 8 9
Wind_Direction
292 240 250 316 10 202 260 63 34 14 51 19 358 10 100 41 14 62 54 348 70 114 121 137 129 119 115 114 116 111 116 116 119 123 122 121 126 131 125 126 124 122 110 106 101 94 89 90 88
296 296 272 274 223 285 44 27 28 31 35 3 321 331 53 80 52 97 37 8 95 125 145 132 135 125 116 112 115 115 116 111 115 112 115 121 122 120 117 121 142 117 121 119 112 104 101 96 90
258 279 290 218 240 308 359 54 40 75 63 342 39 59 0 28 41 58 295 324 139 83 84 117 129 126 117 115 115 114 114 109 105 103 113 128 134 129 120 137 167 143 127 120 118 117 118 112 98
312 230 264 279 287 341 51 29 38 314 109 204 334 95 92 34 44 343 351 284 84 78 79 89 100 105 110 115 111 96 101 112 114 117 118 113 110 131 109 94 115 130 134 126 128 129 129 130 116
243 273 263 222 254 57 43 56 350 302 254 65 61 90 86 62 77 64 6 89 77 65 76 70 78 74 69 67 75 90 112 116 133 139 134 137 130 116 108 97 113 138 149 150 151 154 154 153 148
290 221 292 290 354 36 66 31 332 287 39 77 279 122 80 102 60 65 56 77 70 68 64 88 82 77 65 57 51 53 78 111 117 124 142 161 144 124 133 134 122 134 152 171 177 175 179 179 185
254 327 267 332 296 32 54 3 351 343 295 7 30 18 120 100 83 24 96 71 69 86 80 50 81 100 79 65 63 55 52 115 123 96 65 322 169 163 155 146 144 171 178 169 183 196 200 201 212
304 290 273 242 29 6 58 337 72 290 41 39 34 16 167 129 117 54 98 97 87 73 86 98 71 53 68 71 69 69 75 88 75 56 27 354 230 224 151 141 114 129 180 191 194 193 208 210 218
295 288 265 3 22 14 120 341 131 50 304 33 41 49 100 122 121 98 72 87 110 97 85 96 116 95 101 76 58 85 112 94 105 51 6 34 347 300 296 41 99 80 59 293 246 223 210 216 221
266 298 339 24 6 350 339 294 313 157 226 157 134 97 114 131 138 133 127 121 109 102 110 83 73 127 158 141 174 220 157 129 149 216 202 103 125 231 184 157 181 171 223 249 245 246 236 216 214
274 259 20 19 32 353 323 298 211 287 274 201 187 149 140 165 164 159 137 127 100 89 73 81 69 70 67 66 34 51 57 67 58 39 26 173 168 182 186 147 176 200 228 239 210 231 246 224 231
292 243 352 344 69 318 297 355 286 227 247 59 18 142 140 182 173 134 110 111 105 89 81 87 74 66 76 50 46 56 57 61 65 60 25 20 29 19 14 32 63 102 57 338 23 332 197 251 278
230 300 11 281 310 265 287 276 264 300 286 117 274 129 156 165 147 123 123 115 111 102 98 86 80 67 55 50 40 43 46 51 55 46 30 39 30 24 12 3 1 9 360 338 359 341 352 262 57
13 313 292 292 264 259 271 286 95 258 185 131 149 150 157 158 128 103 118 129 116 122 111 89 76 75 72 61 54 40 26 32 55 54 38 23 29 23 20 7 352 354 353 358 1 353 356 337 72
279 299 280 219 218 260 17 276 227 236 150 181 173 173 155 137 135 154 152 133 131 131 116 101 93 83 79 68 73 65 13 34 39 39 55 35 29 15 8 4 350 336 358 340 304 320 295 264 287
238 231 299 49 132 157 153 279 169 141 169 207 190 168 141 144 156 150 126 125 118 130 129 113 98 87 82 75 63 75 39 30 33 27 43 51 8 19 357 331 325 352 343 320 357 2 346 342 329
253 257 279 178 181 129 182 282 145 168 215 231 192 166 156 150 168 132 136 133 136 124 121 116 102 93 79 62 78 71 61 37 31 43 43 18 12 20 10 347 334 340 318 311 83 356 7 341 336
336 316 318 295 163 180 257 263 272 192 196 244 195 182 170 162 174 144 143 140 141 134 126 110 92 88 92 53 67 65 55 37 32 37 31 18 16 16 8 340 341 347 335 330 40 154 236 310 314
328 297 284 293 123 130 246 259 257 242 189 208 243 189 176 163 164 145 141 146 125 116 124 131 111 72 64 63 43 45 37 40 31 28 12 25 11 8 354 337 347 343 353 340 334 238 117 290 302
294 280 277 280 180 133 271 273 273 255 218 186 214 212 175 160 151 152 145 135 137 141 137 114 102 87 63 59 56 78 40 353 127 36 15 35 2 7 352 352 341 340 343 340 334 333 309 234 245
274 263 276 283 336 284 261 280 249 250 238 191 192 216 179 163 159 159 161 158 150 141 136 122 112 100 81 67 46 15 32 6 34 7 4 1 354 3 360 352 350 341 341 321 314 323 320 305 296
281 16 345 323 334 252 68 284 306 303 220 209 184 196 205 160 156 159 161 165 144 142 128 118 121 114 96 68 59 46 50 42 6 342 352 332 1 4 12 359 354 346 333 326 312 312 319 307 292
259 346 319 331 306 3 270 284 263 307 180 202 186 183 199 161 154 157 156 153 132 117 124 123 115 101 98 88 76 62 31 20 352 345 354 3 350 17 16 15 353 329 327 318 317 317 306 308 297
35 285 233 167 242 319 227 191 286 43 7 41 31 134 183 151 145 149 142 130 118 115 118 122 109 101 89 77 65 62 44 8 9 347 0 10 344 338 2 355 0 348 355 353 339 334 324 298 297
210 297 321 335 358 233 354 286 256 65 42 36 9 357 353 168 145 144 140 129 123 132 141 129 120 110 102 96 82 76 71 25 40 26 5 348 337 336 328 338 328 305 259 253 278 306 308 305 306
186 195 181 250 246 291 342 247 257 90 78 56 39 353 321 338 143 140 136 129 131 142 146 131 124 123 105 81 60 50 40 46 80 78 307 296 313 295 304 331 324 313 307 293 282 277 292 297 290
98 192 347 294 282 325 227 242 51 112 81 68 37 0 348 332 84 122 121 126 127 143 147 127 121 115 106 96 57 36 25 21 33 348 278 297 310 313 334 323 309 311 319 305 326 317 296 288 287
214 342 116 219 252 249 250 241 180 59 43 60 98 99 103 83 110 116 117 123 126 133 123 117 117 118 112 88 63 35 12 11 358 18 355 324 324 339 328 325 326 335 326 312 299 288 288 278 272
173 235 213 314 205 217 314 297 71 69 51 9 104 118 110 93 97 109 112 113 120 131 136 129 118 117 101 86 62 32 17 1 1 338 345 324 332 337 333 329 343 330 318 310 313 299 285 282 285
323 213 200 160 228 200 163 263 95 80 62 53 89 117 122 123 127 116 116 122 134 145 136 122 117 107 104 85 51 15 354 17 354 9 322 333 335 340 333 328 321 317 314 314 298 290 289 284 275